H-2A R/B

Last updated on Fri Nov 07 2025 00:02:17 GMT+0000 (Coordinated Universal Time)

1 43682U 18084L 25310.09242327 .00021398 00000+0 61263-3 0 9997 2 43682 98.8799 136.6292 0029333 90.6649 269.7951 15.35547662386772
UTC large
Height (km)
Speed (km/s)
/
Latitude / Longitude
Inclination (degrees)
Orbital Period (minutes)
Azimuth
Elevation
Range (km)
Doppler Factor

Next 0 passes for location: London (51.5072 / 0.1276)

Sorry there are no passes over London.